,,PA_Meas_PMT16A,,PR_Meas_QMR101_102,,RH_Meas_QMH101,,SR_Meas_QMS101,,TA_Meas_QMH101,,GenWind,,GenWind,
time,status,PA,status,PR,status,RH,status,SR,status,TA,status,DirAvg,status,SpdAvg,
2010-03-15, 00:00:04,VALID,919.114,VALID,0,VALID,97.2138,VALID,0,VALID,20.1498,VALID,33,VALID,0.666406,
2010-03-15, 00:01:04,VALID,919.098,VALID,0,VALID,97.1376,VALID,0.107441,VALID,20.1303,VALID,33,VALID,0.203906,
2010-03-15, 00:02:04,VALID,919.095,VALID,0,VALID,97.1528,VALID,0.107441,VALID,20.1303,VALID,33,VALID,0.2125,
2010-03-15, 00:03:04,VALID,919.055,VALID,0,VALID,97.1147,VALID,0,VALID,20.1318,VALID,33,VALID,0.569922,
2010-03-15, 00:04:04,VALID,919.06,VALID,0,VALID,97.1147,VALID,0,VALID,20.0718,VALID,33,VALID,0.741406,
2010-03-15, 00:05:04,VALID,919.04,VALID,0,VALID,97.0994,VALID,0.107441,VALID,20.0733,VALID,33,VALID,0.832422,
2010-03-15, 00:06:04,VALID,919.037,VALID,0,VALID,97.1147,VALID,0.107441,VALID,20.0733,VALID,33,VALID,0.759766,
2010-03-15, 00:07:04,VALID,919.032,VALID,0,VALID,97.1223,VALID,0.107441,VALID,20.0523,VALID,33,VALID,0.583594,
2010-03-15, 00:08:04,VALID,919.017,VALID,0,VALID,97.1147,VALID,0,VALID,20.0343,VALID,33,VALID,0.727344,
2010-03-15, 00:09:04,VALID,919.017,VALID,0,VALID,97.1299,VALID,0,VALID,20.0148,VALID,33,VALID,0.68125,
2010-03-15, 00:10:04,VALID,919.032,VALID,0,VALID,97.1452,VALID,0.107441,VALID,19.9743,VALID,33,VALID,0.807422,
2010-03-15, 00:11:04,VALID,919.014,VALID,0,VALID,97.1071,VALID,0,VALID,19.9758,VALID,33,VALID,0.663281,
2010-03-15, 00:12:04,VALID,918.984,VALID,0,VALID,97.1376,VALID,0.107441,VALID,19.9758,VALID,33,VALID,0.78125,
2010-03-15, 00:13:04,VALID,918.976,VALID,0,VALID,97.1452,VALID,0,VALID,19.9548,VALID,33,VALID,0.785547,
2010-03-15, 00:14:04,VALID,918.948,VALID,0,VALID,97.1986,VALID,0.107441,VALID,19.9353,VALID,33,VALID,0.747266,
2010-03-15, 00:15:04,VALID,918.912,VALID,0,VALID,97.1986,VALID,0.107441,VALID,19.9353,VALID,33,VALID,0.994922,
2010-03-15, 00:16:04,VALID,918.922,VALID,0,VALID,97.1909,VALID,0,VALID,19.9548,VALID,33,VALID,0.551562,
2010-03-15, 00:17:04,VALID,918.897,VALID,0,VALID,97.2138,VALID,0,VALID,19.9548,VALID,33,VALID,0.725781,
2010-03-15, 00:18:04,VALID,918.852,VALID,0,VALID,97.2138,VALID,0.107441,VALID,19.9353,VALID,33,VALID,0.540234,
2010-03-15, 00:19:04,VALID,918.847,VALID,0,VALID,97.2367,VALID,0.107441,VALID,19.9548,VALID,33,VALID,0.619531,
2010-03-15, 00:20:04,VALID,918.802,VALID,0,VALID,97.2443,VALID,0.107441,VALID,19.9548,VALID,33,VALID,0.303125,
2010-03-15, 00:21:04,VALID,918.796,VALID,0,VALID,97.2595,VALID,0,VALID,19.9743,VALID,33,VALID,0.755469,
2010-03-15, 00:22:04,VALID,918.779,VALID,0,VALID,97.2595,VALID,0.107441,VALID,19.9953,VALID,33,VALID,0.533594,
2010-03-15, 00:23:04,VALID,918.757,VALID,0,VALID,97.2519,VALID,0.107441,VALID,19.9548,VALID,33,VALID,0.377734,
2010-03-15, 00:24:04,VALID,918.741,VALID,0,VALID,97.2595,VALID,0,VALID,19.9548,VALID,33,VALID,0.38125,
2010-03-15, 00:25:04,VALID,918.707,VALID,0,VALID,97.2824,VALID,0,VALID,19.9548,VALID,33,VALID,0.540234,
2010-03-15, 00:26:04,VALID,918.692,VALID,0,VALID,97.2672,VALID,0.107441,VALID,19.9758,VALID,33,VALID,0.645312,
2010-03-15, 00:27:04,VALID,918.66,VALID,0,VALID,97.2977,VALID,0.107441,VALID,19.9353,VALID,33,VALID,0.654688,
2010-03-15, 00:28:04,VALID,918.639,VALID,0,VALID,97.2824,VALID,0.107441,VALID,19.9563,VALID,33,VALID,0.472266,
2010-03-15, 00:29:04,VALID,918.611,VALID,0,VALID,97.2824,VALID,0.107441,VALID,19.9353,VALID,33,VALID,0.0832031,
2010-03-15, 00:30:04,VALID,918.617,VALID,0,VALID,97.2748,VALID,0.107441,VALID,19.9158,VALID,33,VALID,0.291406,
2010-03-15, 00:31:04,VALID,918.606,VALID,0,VALID,97.29,VALID,0,VALID,19.9158,VALID,33,VALID,0.448828,
2010-03-15, 00:32:04,VALID,918.613,VALID,0,VALID,97.2977,VALID,0,VALID,19.8963,VALID,33,VALID,0.445703,
2010-03-15, 00:33:04,VALID,918.625,VALID,0,VALID,97.2824,VALID,0.107441,VALID,19.8978,VALID,33,VALID,0.621484,
2010-03-15, 00:34:04,VALID,918.662,VALID,0,VALID,97.2748,VALID,0,VALID,19.8573,VALID,33,VALID,0.691797,
2010-03-15, 00:35:04,VALID,918.634,VALID,0,VALID,97.2748,VALID,0,VALID,19.8588,VALID,34,VALID,0.882031,
2010-03-15, 00:36:04,VALID,918.698,VALID,0,VALID,97.2824,VALID,0.107441,VALID,19.8183,VALID,33,VALID,0.870313,
2010-03-15, 00:37:04,VALID,918.677,VALID,0,VALID,97.2977,VALID,0,VALID,19.7988,VALID,33,VALID,0.698438,
2010-03-15, 00:38:04,VALID,918.671,VALID,0,VALID,97.2977,VALID,0,VALID,19.8198,VALID,33,VALID,0.642578,
2010-03-15, 00:39:04,VALID,918.674,VALID,0,VALID,97.3129,VALID,0,VALID,19.7793,VALID,33,VALID,0.657812,
2010-03-15, 00:40:04,VALID,918.698,VALID,0,VALID,97.3205,VALID,0,VALID,19.7793,VALID,33,VALID,0.31875,
2010-03-15, 00:41:04,VALID,918.688,VALID,0,VALID,97.3281,VALID,0,VALID,19.8198,VALID,33,VALID,0.394531,
2010-03-15, 00:42:04,VALID,918.646,VALID,0,VALID,97.3129,VALID,0,VALID,19.8198,VALID,33,VALID,0.128906,
2010-03-15, 00:43:04,VALID,918.622,VALID,0,VALID,97.3358,VALID,0,VALID,19.8003,VALID,33,VALID,0.414844,
2010-03-15, 00:44:04,VALID,918.614,VALID,0,VALID,97.3434,VALID,0,VALID,19.8183,VALID,33,VALID,0.438672,
2010-03-15, 00:45:04,VALID,918.598,VALID,0,VALID,97.351,VALID,0,VALID,19.8378,VALID,33,VALID,0.591406,
2010-03-15, 00:46:04,VALID,918.602,VALID,0,VALID,97.3739,VALID,0,VALID,19.8978,VALID,33,VALID,0.471094,
2010-03-15, 00:47:04,VALID,918.561,VALID,0,VALID,97.3663,VALID,0.107441,VALID,19.8963,VALID,33,VALID,0.532812,
2010-03-15, 00:48:04,VALID,918.563,VALID,0,VALID,97.3739,VALID,0,VALID,19.9353,VALID,33,VALID,0.153125,
2010-03-15, 00:49:04,VALID,918.541,VALID,0,VALID,97.3739,VALID,0,VALID,19.9563,VALID,33,VALID,0.0335938,
2010-03-15, 00:50:04,VALID,918.535,VALID,0,VALID,97.3815,VALID,0,VALID,19.9758,VALID,33,VALID,0.230078,
2010-03-15, 00:51:04,VALID,918.527,VALID,0,VALID,97.3968,VALID,0.107441,VALID,19.9953,VALID,33,VALID,0.212891,
2010-03-15, 00:52:04,VALID,918.516,VALID,0,VALID,97.4044,VALID,0,VALID,19.9743,VALID,33,VALID,0.287891,
2010-03-15, 00:53:04,VALID,918.536,VALID,0,VALID,97.3968,VALID,0.107441,VALID,19.9743,VALID,33,VALID,0.207813,
2010-03-15, 00:54:04,VALID,918.551,VALID,0,VALID,97.4044,VALID,0,VALID,20.0148,VALID,33,VALID,0.145703,
2010-03-15, 00:55:04,VALID,918.566,VALID,0,VALID,97.4044,VALID,0.107441,VALID,19.9743,VALID,33,VALID,0.342578,
2010-03-15, 00:56:04,VALID,918.554,VALID,0,VALID,97.412,VALID,0.107441,VALID,19.9953,VALID,33,VALID,0.433594,
2010-03-15, 00:57:04,VALID,918.548,VALID,0,VALID,97.4044,VALID,0,VALID,19.9953,VALID,33,VALID,0.171484,
2010-03-15, 00:58:04,VALID,918.557,VALID,0,VALID,97.4044,VALID,0,VALID,19.9743,VALID,33,VALID,0.347266,
2010-03-15, 00:59:04,VALID,918.544,VALID,0,VALID,97.412,VALID,0.107441,VALID,19.9743,VALID,33,VALID,0.378516,
2010-03-15, 01:00:04,VALID,918.49,VALID,0,VALID,97.4044,VALID,0.107441,VALID,19.9743,VALID,33,VALID,0.374609,
2010-03-15, 01:01:04,VALID,918.475,VALID,0,VALID,97.412,VALID,0.107441,VALID,19.9743,VALID,33,VALID,0.536328,
2010-03-15, 01:02:04,VALID,918.476,VALID,0,VALID,97.3968,VALID,0,VALID,19.9938,VALID,33,VALID,0.405469,
2010-03-15, 01:03:04,VALID,918.423,VALID,0,VALID,97.4044,VALID,0.107441,VALID,19.9938,VALID,33,VALID,0.00664063,
2010-03-15, 01:04:04,VALID,918.452,VALID,0,VALID,97.412,VALID,0.107441,VALID,20.0133,VALID,33,VALID,0.333203,
2010-03-15, 01:05:04,VALID,918.458,VALID,0,VALID,97.4044,VALID,0,VALID,20.0133,VALID,33,VALID,0,
2010-03-15, 01:06:04,VALID,918.45,VALID,0,VALID,97.412,VALID,0,VALID,20.0133,VALID,33,VALID,0,
2010-03-15, 01:07:04,VALID,918.448,VALID,0,VALID,97.412,VALID,0,VALID,20.0523,VALID,33,VALID,0,
2010-03-15, 01:08:04,VALID,918.448,VALID,0,VALID,97.4196,VALID,0,VALID,20.0523,VALID,33,VALID,0,
2010-03-15, 01:09:04,VALID,918.425,VALID,0,VALID,97.4196,VALID,0.107441,VALID,20.0523,VALID,33,VALID,0.0996094,
2010-03-15, 01:10:04,VALID,918.453,VALID,0,VALID,97.4196,VALID,0.107441,VALID,20.0523,VALID,33,VALID,0.435937,
2010-03-15, 01:11:04,VALID,918.454,VALID,0,VALID,97.4273,VALID,0,VALID,20.0328,VALID,33,VALID,0.198047,
2010-03-15, 01:12:04,VALID,918.443,VALID,0,VALID,97.4196,VALID,0.107441,VALID,20.0538,VALID,33,VALID,0.345703,
2010-03-15, 01:13:04,VALID,918.471,VALID,0,VALID,97.4349,VALID,0,VALID,20.0133,VALID,33,VALID,0.377734,
2010-03-15, 01:14:04,VALID,918.491,VALID,0,VALID,97.4196,VALID,0.107441,VALID,19.9938,VALID,33,VALID,0.386328,
2010-03-15, 01:15:04,VALID,918.476,VALID,0,VALID,97.4273,VALID,0.107441,VALID,19.9743,VALID,33,VALID,0.692969,
2010-03-15, 01:16:04,VALID,918.478,VALID,0,VALID,97.4349,VALID,0,VALID,19.9548,VALID,33,VALID,0.622656,
2010-03-15, 01:17:04,VALID,918.463,VALID,0,VALID,97.4349,VALID,0.107441,VALID,19.9353,VALID,33,VALID,0.692969,
2010-03-15, 01:18:04,VALID,918.449,VALID,0,VALID,97.4425,VALID,0,VALID,19.9548,VALID,33,VALID,0.532812,
2010-03-15, 01:19:04,VALID,918.431,VALID,0,VALID,97.4349,VALID,0,VALID,19.9743,VALID,33,VALID,0.796875,
2010-03-15, 01:20:04,VALID,918.412,VALID,0,VALID,97.4196,VALID,0.107441,VALID,19.9938,VALID,34,VALID,0.713672,
2010-03-15, 01:21:04,VALID,918.399,VALID,0,VALID,97.4196,VALID,0,VALID,19.9743,VALID,34,VALID,0.591797,
2010-03-15, 01:22:04,VALID,918.406,VALID,0,VALID,97.4273,VALID,0.107441,VALID,19.9743,VALID,34,VALID,0.819922,
2010-03-15, 01:23:04,VALID,918.347,VALID,0,VALID,97.4425,VALID,0.107441,VALID,19.9938,VALID,34,VALID,0.707031,
2010-03-15, 01:24:04,VALID,918.355,VALID,0,VALID,97.4349,VALID,0.107441,VALID,19.9743,VALID,34,VALID,0.741016,
2010-03-15, 01:25:04,VALID,918.32,VALID,0,VALID,97.4425,VALID,0.107441,VALID,19.9743,VALID,34,VALID,0.954297,
2010-03-15, 01:26:04,VALID,918.304,VALID,0,VALID,97.4425,VALID,0.107441,VALID,19.9938,VALID,34,VALID,1.1082,
2010-03-15, 01:27:04,VALID,918.285,VALID,0,VALID,97.4425,VALID,0,VALID,19.9938,VALID,121,VALID,0.803906,
2010-03-15, 01:28:04,VALID,918.253,VALID,0,VALID,97.4425,VALID,0.107441,VALID,19.9938,VALID,120,VALID,1.21445,
2010-03-15, 01:29:04,VALID,918.268,VALID,0,VALID,97.4425,VALID,0.107441,VALID,19.9728,VALID,120,VALID,1.13906,
2010-03-15, 01:30:04,VALID,918.22,VALID,0,VALID,97.4349,VALID,0,VALID,19.9938,VALID,135,VALID,0.870313,
2010-03-15, 01:31:04,VALID,918.159,VALID,0,VALID,97.4425,VALID,0.107441,VALID,20.0133,VALID,138,VALID,0.932422,
2010-03-15, 01:32:04,VALID,918.155,VALID,0,VALID,97.4577,VALID,0.107441,VALID,20.0133,VALID,138,VALID,0.432031,
2010-03-15, 01:33:04,VALID,918.135,VALID,0,VALID,97.4806,VALID,0,VALID,20.0133,VALID,138,VALID,1.34531,
2010-03-15, 01:34:04,VALID,918.102,VALID,0,VALID,97.4577,VALID,0,VALID,20.0133,VALID,138,VALID,0.882813,
2010-03-15, 01:35:04,VALID,918.085,VALID,0,VALID,97.4501,VALID,0,VALID,20.0133,VALID,138,VALID,0.902734,
2010-03-15, 01:36:04,VALID,918.056,VALID,0,VALID,97.473,VALID,0.107441,VALID,19.9923,VALID,143,VALID,0.890234,
2010-03-15, 01:37:04,VALID,918.069,VALID,0,VALID,97.4577,VALID,0.107441,VALID,20.0133,VALID,143,VALID,0.657812,
2010-03-15, 01:38:04,VALID,918.04,VALID,0,VALID,97.473,VALID,0.107441,VALID,20.0133,VALID,143,VALID,0.673437,
2010-03-15, 01:39:04,VALID,918.065,VALID,0,VALID,97.4806,VALID,0,VALID,20.0328,VALID,143,VALID,0.529297,
2010-03-15, 01:40:04,VALID,918.042,VALID,0,VALID,97.4806,VALID,0.107441,VALID,20.0118,VALID,144,VALID,0.790625,
2010-03-15, 01:41:04,VALID,918.073,VALID,0,VALID,97.473,VALID,0.107441,VALID,20.0523,VALID,144,VALID,0.571875,
2010-03-15, 01:42:04,VALID,918.054,VALID,0,VALID,97.4577,VALID,0.214882,VALID,20.0328,VALID,144,VALID,0.473047,
2010-03-15, 01:43:04,VALID,918.068,VALID,0,VALID,97.473,VALID,0,VALID,20.0523,VALID,144,VALID,0.289063,
2010-03-15, 01:44:04,VALID,918.089,VALID,0,VALID,97.4577,VALID,0.107441,VALID,20.0718,VALID,144,VALID,0.203906,
2010-03-15, 01:45:04,VALID,918.073,VALID,0,VALID,97.4654,VALID,0.107441,VALID,20.0913,VALID,144,VALID,0.386328,
2010-03-15, 01:46:04,VALID,918.047,VALID,0,VALID,97.4806,VALID,0,VALID,20.0718,VALID,144,VALID,0.403125,
2010-03-15, 01:47:04,VALID,918.046,VALID,0,VALID,97.473,VALID,0.107441,VALID,20.0718,VALID,144,VALID,0.410156,
2010-03-15, 01:48:04,VALID,918.043,VALID,0,VALID,97.4959,VALID,0,VALID,20.0718,VALID,144,VALID,0.414453,
2010-03-15, 01:49:04,VALID,918.03,VALID,0,VALID,97.4654,VALID,0.107441,VALID,20.0913,VALID,144,VALID,0.158594,
2010-03-15, 01:50:04,VALID,918.006,VALID,0,VALID,97.4806,VALID,0,VALID,20.0913,VALID,144,VALID,0.461328,
2010-03-15, 01:51:04,VALID,917.982,VALID,0,VALID,97.4882,VALID,0.107441,VALID,20.0913,VALID,144,VALID,0.201562,
2010-03-15, 01:52:04,VALID,917.963,VALID,0,VALID,97.4882,VALID,0.107441,VALID,20.0913,VALID,144,VALID,0,
2010-03-15, 01:53:04,VALID,917.937,VALID,0,VALID,97.4577,VALID,0.107441,VALID,20.1108,VALID,144,VALID,0,
2010-03-15, 01:54:04,VALID,917.947,VALID,0,VALID,97.4959,VALID,0.107441,VALID,20.1108,VALID,144,VALID,0.664844,
2010-03-15, 01:55:04,VALID,917.931,VALID,0,VALID,97.4959,VALID,0.107441,VALID,20.0928,VALID,144,VALID,0.552734,
2010-03-15, 01:56:04,VALID,917.938,VALID,0,VALID,97.473,VALID,0.107441,VALID,20.0913,VALID,144,VALID,0.445313,
2010-03-15, 01:57:04,VALID,917.93,VALID,0,VALID,97.4806,VALID,0.107441,VALID,20.0913,VALID,144,VALID,0.210938,
2010-03-15, 01:58:04,VALID,917.892,VALID,0,VALID,97.473,VALID,0.107441,VALID,20.0718,VALID,144,VALID,0,
2010-03-15, 01:59:04,VALID,917.9,VALID,0,VALID,97.473,VALID,0.107441,VALID,20.0718,VALID,144,VALID,0.278906,
2010-03-15, 02:00:04,VALID,917.877,VALID,0,VALID,97.4806,VALID,0.107441,VALID,20.0523,VALID,144,VALID,0.349609,
2010-03-15, 02:01:04,VALID,917.874,VALID,0,VALID,97.4654,VALID,0.107441,VALID,20.0538,VALID,144,VALID,0.423438,
2010-03-15, 02:02:04,VALID,917.884,VALID,0,VALID,97.4959,VALID,0.107441,VALID,20.0343,VALID,144,VALID,0.668359,
2010-03-15, 02:03:04,VALID,917.875,VALID,0,VALID,97.4806,VALID,0.107441,VALID,20.0328,VALID,144,VALID,0.692578,
2010-03-15, 02:04:04,VALID,917.851,VALID,0,VALID,97.4959,VALID,0,VALID,20.0133,VALID,144,VALID,0.534375,
2010-03-15, 02:05:04,VALID,917.812,VALID,0,VALID,97.4882,VALID,0.107441,VALID,19.9923,VALID,144,VALID,0.601172,
2010-03-15, 02:06:04,VALID,917.811,VALID,0,VALID,97.4806,VALID,0.107441,VALID,20.0133,VALID,144,VALID,0.517578,
2010-03-15, 02:07:04,VALID,917.799,VALID,0,VALID,97.5035,VALID,0.107441,VALID,20.0133,VALID,144,VALID,0.526563,
2010-03-15, 02:08:04,VALID,917.799,VALID,0,VALID,97.4806,VALID,0.107441,VALID,20.0133,VALID,144,VALID,0.748047,
2010-03-15, 02:09:04,VALID,917.81,VALID,0,VALID,97.5035,VALID,0,VALID,19.9938,VALID,144,VALID,0.585938,
2010-03-15, 02:10:04,VALID,917.798,VALID,0,VALID,97.4959,VALID,0,VALID,19.9938,VALID,144,VALID,0.550391,
2010-03-15, 02:11:04,VALID,917.81,VALID,0,VALID,97.5035,VALID,0.107441,VALID,20.0133,VALID,144,VALID,0.464844,
2010-03-15, 02:12:04,VALID,917.785,VALID,0,VALID,97.5035,VALID,0.107441,VALID,19.9938,VALID,144,VALID,0.415625,
2010-03-15, 02:13:04,VALID,917.77,VALID,0,VALID,97.5035,VALID,0,VALID,20.0133,VALID,144,VALID,0.619531,
2010-03-15, 02:14:04,VALID,917.745,VALID,0,VALID,97.5111,VALID,0.107441,VALID,20.0328,VALID,144,VALID,0.0339844,
2010-03-15, 02:15:04,VALID,917.744,VALID,0,VALID,97.5111,VALID,0.107441,VALID,20.0133,VALID,144,VALID,0.468359,
2010-03-15, 02:16:04,VALID,917.759,VALID,0,VALID,97.5187,VALID,0.107441,VALID,20.0133,VALID,144,VALID,0.689453,
2010-03-15, 02:17:04,VALID,917.756,VALID,0,VALID,97.5187,VALID,0.107441,VALID,19.9728,VALID,144,VALID,0.917578,
2010-03-15, 02:18:04,VALID,917.742,VALID,0,VALID,97.5111,VALID,0.107441,VALID,19.9938,VALID,144,VALID,0.71875,
2010-03-15, 02:19:04,VALID,917.745,VALID,0,VALID,97.5111,VALID,0.107441,VALID,19.9728,VALID,144,VALID,0.839063,
2010-03-15, 02:20:04,VALID,917.736,VALID,0,VALID,97.4959,VALID,0.107441,VALID,19.9743,VALID,144,VALID,0.672266,
2010-03-15, 02:21:04,VALID,917.715,VALID,0,VALID,97.5187,VALID,0.107441,VALID,19.9953,VALID,144,VALID,0.926953,
2010-03-15, 02:22:04,VALID,917.712,VALID,0,VALID,97.5111,VALID,0.107441,VALID,19.9938,VALID,144,VALID,0.687109,
2010-03-15, 02:23:04,VALID,917.701,VALID,0,VALID,97.5035,VALID,0.107441,VALID,19.9743,VALID,144,VALID,0.660547,
2010-03-15, 02:24:04,VALID,917.692,VALID,0,VALID,97.5187,VALID,0.107441,VALID,19.9938,VALID,144,VALID,0.0121094,
2010-03-15, 02:25:04,VALID,917.66,VALID,0,VALID,97.5111,VALID,0.107441,VALID,20.0133,VALID,144,VALID,0.531641,
2010-03-15, 02:26:04,VALID,917.659,VALID,0,VALID,97.5035,VALID,0,VALID,20.0343,VALID,144,VALID,0.558984,
2010-03-15, 02:27:04,VALID,917.634,VALID,0,VALID,97.5264,VALID,0,VALID,20.0133,VALID,144,VALID,0.0121094,
2010-03-15, 02:28:04,VALID,917.628,VALID,0,VALID,97.5187,VALID,0.107441,VALID,20.0538,VALID,144,VALID,0.137891,
2010-03-15, 02:29:04,VALID,917.596,VALID,0,VALID,97.5111,VALID,0.107441,VALID,20.0538,VALID,144,VALID,0,
2010-03-15, 02:30:04,VALID,917.594,VALID,0,VALID,97.5187,VALID,0.107441,VALID,20.0538,VALID,144,VALID,0.211328,
2010-03-15, 02:31:04,VALID,917.56,VALID,0,VALID,97.5264,VALID,0.107441,VALID,20.0133,VALID,144,VALID,0.54375,
2010-03-15, 02:32:04,VALID,917.578,VALID,0,VALID,97.5264,VALID,0.107441,VALID,20.0133,VALID,144,VALID,0.325,
2010-03-15, 02:33:04,VALID,917.563,VALID,0,VALID,97.5264,VALID,0.107441,VALID,20.0148,VALID,144,VALID,0.377734,
2010-03-15, 02:34:04,VALID,917.543,VALID,0,VALID,97.5035,VALID,0.107441,VALID,19.9938,VALID,144,VALID,0.437891,
2010-03-15, 02:35:04,VALID,917.541,VALID,0,VALID,97.4959,VALID,0,VALID,19.9743,VALID,144,VALID,0.433984,
2010-03-15, 02:36:04,VALID,917.55,VALID,0,VALID,97.5187,VALID,0.107441,VALID,19.9953,VALID,144,VALID,0.548437,
2010-03-15, 02:37:04,VALID,917.563,VALID,0,VALID,97.5187,VALID,0.107441,VALID,19.9758,VALID,144,VALID,0.528516,
2010-03-15, 02:38:04,VALID,917.524,VALID,0,VALID,97.5035,VALID,0,VALID,19.9758,VALID,144,VALID,0.689453,
2010-03-15, 02:39:04,VALID,917.55,VALID,0,VALID,97.5035,VALID,0.107441,VALID,19.9563,VALID,144,VALID,0.532812,
2010-03-15, 02:40:04,VALID,917.555,VALID,0,VALID,97.5187,VALID,0.107441,VALID,19.9353,VALID,144,VALID,0.830078,
2010-03-15, 02:41:04,VALID,917.559,VALID,0,VALID,97.4959,VALID,0.107441,VALID,19.9353,VALID,144,VALID,0.804297,
2010-03-15, 02:42:04,VALID,917.548,VALID,0,VALID,97.4882,VALID,0,VALID,19.9353,VALID,144,VALID,0.738281,
2010-03-15, 02:43:04,VALID,917.541,VALID,0,VALID,97.5035,VALID,0.107441,VALID,19.9353,VALID,144,VALID,0.7625,
2010-03-15, 02:44:04,VALID,917.515,VALID,0,VALID,97.4959,VALID,0,VALID,19.9563,VALID,144,VALID,0.345703,
2010-03-15, 02:45:04,VALID,917.492,VALID,0,VALID,97.5035,VALID,0.107441,VALID,19.9353,VALID,144,VALID,0.498828,
2010-03-15, 02:46:04,VALID,917.492,VALID,0,VALID,97.534,VALID,0.107441,VALID,19.9353,VALID,144,VALID,0.401563,
2010-03-15, 02:47:04,VALID,917.464,VALID,0,VALID,97.5187,VALID,0.107441,VALID,19.9563,VALID,144,VALID,0.739062,
2010-03-15, 02:48:04,VALID,917.446,VALID,0,VALID,97.5187,VALID,0.107441,VALID,19.9548,VALID,144,VALID,0.619922,
2010-03-15, 02:49:04,VALID,917.429,VALID,0,VALID,97.5264,VALID,0.107441,VALID,19.9548,VALID,144,VALID,0.554297,
2010-03-15, 02:50:04,VALID,917.445,VALID,0,VALID,97.5111,VALID,0,VALID,19.9563,VALID,144,VALID,0.512891,
2010-03-15, 02:51:04,VALID,917.437,VALID,0,VALID,97.5035,VALID,0,VALID,19.9353,VALID,144,VALID,0.546094,
2010-03-15, 02:52:04,VALID,917.41,VALID,0,VALID,97.5035,VALID,0.107441,VALID,19.9368,VALID,144,VALID,0.707422,
2010-03-15, 02:53:04,VALID,917.419,VALID,0,VALID,97.5264,VALID,0.107441,VALID,19.9368,VALID,144,VALID,0.364844,
2010-03-15, 02:54:04,VALID,917.415,VALID,0,VALID,97.5111,VALID,0.107441,VALID,19.9368,VALID,144,VALID,0.414063,
2010-03-15, 02:55:04,VALID,917.412,VALID,0,VALID,97.5264,VALID,0.107441,VALID,19.9368,VALID,144,VALID,0.275,
2010-03-15, 02:56:04,VALID,917.368,VALID,0,VALID,97.5187,VALID,0.107441,VALID,19.9158,VALID,144,VALID,0.307422,
2010-03-15, 02:57:04,VALID,917.374,VALID,0,VALID,97.5111,VALID,0,VALID,19.9158,VALID,144,VALID,0.169922,
2010-03-15, 02:58:04,VALID,917.361,VALID,0,VALID,97.5035,VALID,0.107441,VALID,19.9158,VALID,144,VALID,0.130469,
2010-03-15, 02:59:04,VALID,917.327,VALID,0,VALID,97.4959,VALID,0.107441,VALID,19.9173,VALID,144,VALID,0.248828,
2010-03-15, 03:00:04,VALID,917.298,VALID,0,VALID,97.5035,VALID,0,VALID,19.9158,VALID,144,VALID,0.329297,
2010-03-15, 03:01:04,VALID,917.318,VALID,0,VALID,97.5111,VALID,0.107441,VALID,19.8963,VALID,144,VALID,0.397656,
2010-03-15, 03:02:04,VALID,917.3,VALID,0,VALID,97.5035,VALID,0.107441,VALID,19.9173,VALID,144,VALID,0.560938,
2010-03-15, 03:03:04,VALID,917.271,VALID,0,VALID,97.5035,VALID,0.107441,VALID,19.8963,VALID,144,VALID,0.594531,
2010-03-15, 03:04:04,VALID,917.284,VALID,0,VALID,97.5187,VALID,0,VALID,19.8978,VALID,144,VALID,0.83125,
2010-03-15, 03:05:04,VALID,917.251,VALID,0,VALID,97.5111,VALID,0.107441,VALID,19.8768,VALID,144,VALID,0.668359,
2010-03-15, 03:06:04,VALID,917.234,VALID,0,VALID,97.5187,VALID,0.107441,VALID,19.8978,VALID,144,VALID,0.85,
2010-03-15, 03:07:04,VALID,917.257,VALID,0,VALID,97.5111,VALID,0,VALID,19.8978,VALID,144,VALID,0.500391,
2010-03-15, 03:08:04,VALID,917.25,VALID,0,VALID,97.5111,VALID,0.107441,VALID,19.8768,VALID,144,VALID,0.520703,
2010-03-15, 03:09:04,VALID,917.253,VALID,0,VALID,97.5264,VALID,0.107441,VALID,19.8768,VALID,144,VALID,0.398828,
2010-03-15, 03:10:04,VALID,917.223,VALID,0,VALID,97.534,VALID,0.107441,VALID,19.8768,VALID,144,VALID,0.257813,
2010-03-15, 03:11:04,VALID,917.251,VALID,0,VALID,97.5264,VALID,0.107441,VALID,19.8768,VALID,144,VALID,0.174609,
2010-03-15, 03:12:04,VALID,917.231,VALID,0,VALID,97.534,VALID,0.107441,VALID,19.8768,VALID,144,VALID,0.473437,
2010-03-15, 03:13:04,VALID,917.24,VALID,0,VALID,97.5035,VALID,0.107441,VALID,19.8768,VALID,144,VALID,0.367969,
2010-03-15, 03:14:04,VALID,917.246,VALID,0,VALID,97.5187,VALID,0,VALID,19.8963,VALID,144,VALID,0.285937,
2010-03-15, 03:15:04,VALID,917.204,VALID,0,VALID,97.534,VALID,0.107441,VALID,19.9158,VALID,144,VALID,0.298047,
2010-03-15, 03:16:04,VALID,917.212,VALID,0,VALID,97.5187,VALID,0.107441,VALID,19.8768,VALID,144,VALID,0.161328,
2010-03-15, 03:17:04,VALID,917.191,VALID,0,VALID,97.5035,VALID,0.107441,VALID,19.8573,VALID,144,VALID,0.432031,
2010-03-15, 03:18:04,VALID,917.186,VALID,0,VALID,97.5111,VALID,0.107441,VALID,19.8573,VALID,144,VALID,0.385156,
2010-03-15, 03:19:04,VALID,917.165,VALID,0,VALID,97.5264,VALID,0.107441,VALID,19.8573,VALID,144,VALID,0.301953,
2010-03-15, 03:20:04,VALID,917.134,VALID,0,VALID,97.5035,VALID,0.107441,VALID,19.8378,VALID,144,VALID,0.531641,
2010-03-15, 03:21:04,VALID,917.1,VALID,0,VALID,97.5264,VALID,0.107441,VALID,19.8783,VALID,144,VALID,0.518359,
2010-03-15, 03:22:04,VALID,917.067,VALID,0,VALID,97.5187,VALID,0,VALID,19.8573,VALID,144,VALID,0.444922,
2010-03-15, 03:23:04,VALID,917.07,VALID,0,VALID,97.5111,VALID,0.107441,VALID,19.8783,VALID,144,VALID,0.510547,
2010-03-15, 03:24:04,VALID,917.061,VALID,0,VALID,97.5187,VALID,0,VALID,19.8783,VALID,144,VALID,0.853125,
2010-03-15, 03:25:04,VALID,917.051,VALID,0,VALID,97.5187,VALID,0.107441,VALID,19.8768,VALID,144,VALID,1.08789,
2010-03-15, 03:26:04,VALID,917.052,VALID,0,VALID,97.534,VALID,0.107441,VALID,19.8573,VALID,144,VALID,0.816797,
2010-03-15, 03:27:04,VALID,917.053,VALID,0,VALID,97.5416,VALID,0.107441,VALID,19.8573,VALID,144,VALID,0.901563,
2010-03-15, 03:28:04,VALID,917.045,VALID,0,VALID,97.5416,VALID,0.107441,VALID,19.8768,VALID,144,VALID,0.724219,
2010-03-15, 03:29:04,VALID,917.029,VALID,0,VALID,97.5035,VALID,0.107441,VALID,19.8573,VALID,144,VALID,0.540625,
2010-03-15, 03:30:04,VALID,917.024,VALID,0,VALID,97.5569,VALID,0.107441,VALID,19.8783,VALID,144,VALID,0.475,
2010-03-15, 03:31:04,VALID,917.029,VALID,0,VALID,97.5187,VALID,0.107441,VALID,19.8573,VALID,144,VALID,0.686328,
2010-03-15, 03:32:04,VALID,917.042,VALID,0,VALID,97.5264,VALID,0.107441,VALID,19.8573,VALID,144,VALID,0.626172,
2010-03-15, 03:33:04,VALID,917.012,VALID,0,VALID,97.534,VALID,0.107441,VALID,19.8588,VALID,144,VALID,0.555469,
2010-03-15, 03:34:04,VALID,917.015,VALID,0,VALID,97.5111,VALID,0.107441,VALID,19.8378,VALID,144,VALID,0.727344,
2010-03-15, 03:35:04,VALID,917.029,VALID,0,VALID,97.5264,VALID,0,VALID,19.8183,VALID,144,VALID,0.570703,
2010-03-15, 03:36:04,VALID,917,VALID,0,VALID,97.5035,VALID,0.107441,VALID,19.8393,VALID,144,VALID,0.482031,